Temp
23 23 23 22 22 22 23 23 22 22 22 22 22 22 22 22 22 21 21 21 21 21 21 21 21 21 20 20 21 21 21 21 21 20 20 21 20 20 19 19 18 18
23 23 23 23 23 22 22 22 22 22 22 22 22 22 22 22 22 22 21 21 21 21 21 21 21 21 21 21 21 21 22 22 21 21 21 21 21 20 20 19 19 18
23 23 23 23 23 23 22 22 22 22 22 22 22 22 22 22 22 22 21 21 21 21 21 21 21 21 21 21 21 22 22 22 22 21 21 21 21 20 20 19 19 18
23 23 23 23 23 23 23 22 22 22 22 22 22 22 22 22 22 22 21 21 21 21 21 21 21 21 21 21 21 22 22 22 22 21 21 21 21 21 20 19 19 19
23 23 23 23 23 23 23 22 22 22 22 22 22 22 22 22 22 22 21 21 21 21 21 21 21 21 21 21 21 22 22 22 22 21 21 21 21 21 20 19 19 19
23 23 23 23 23 23 23 23 22 22 22 22 22 22 22 22 22 22 22 21 21 21 21 21 21 21 21 21 21 22 22 22 22 21 21 21 20 20 20 19 19 19
23 23 23 23 23 23 23 23 23 22 22 22 22 21 21 21 21 22 22 22 21 21 21 21 21 21 21 20 21 21 22 22 21 21 20 20 20 20 20 20 19 19
23 23 23 23 23 22 23 23 23 23 22 22 22 22 21 21 21 21 22 22 21 21 21 21 21 21 21 20 20 21 22 22 22 21 21 20 20 20 20 20 20 19
23 23 23 23 23 22 23 23 23 23 23 22 22 22 21 21 21 21 21 21 21 21 21 21 21 21 21 21 20 21 21 22 22 22 21 21 20 20 20 20 19 19
24 23 23 23 23 23 23 23 23 23 23 22 22 22 22 21 21 21 21 21 21 21 21 21 21 21 21 21 21 20 21 21 22 22 22 21 21 21 20 20 20 20
23 23 23 23 23 23 23 23 23 23 23 23 22 22 22 21 21 21 21 21 21 21 21 21 21 21 21 21 21 21 20 21 21 22 22 21 21 21 20 20 20 20
23 23 23 23 23 23 23 23 23 23 23 23 22 22 22 21 21 21 21 21 21 21 21 21 21 21 21 21 21 21 20 20 21 21 22 21 21 21 21 20 20 19
24 24 23 23 23 23 23 23 23 23 23 23 23 22 22 22 22 21 21 21 21 21 21 21 21 21 21 21 20 20 20 20 21 21 21 21 21 21 21 20 20 20
24 24 23 23 23 23 23 23 23 23 23 23 23 22 22 22 22 22 22 21 21 21 21 21 21 21 21 21 20 20 20 20 20 20 21 21 21 21 21 20 20 20
24 24 24 23 23 23 23 23 22 22 22 22 23 23 23 23 22 22 22 21 21 21 21 21 21 21 21 21 20 20 20 20 20 20 20 20 20 21 21 20 20 20
23 23 24 23 23 23 23 22 22 22 22 22 23 23 23 23 23 22 22 22 22 21 21 21 21 21 21 21 20 20 20 20 20 20 20 20 20 20 20 20 20 20
23 23 24 24 24 23 23 23 22 22 22 22 22 23 24 23 23 22 22 22 22 22 22 22 22 22 22 21 20 20 20 20 20 19 19 19 19 19 20 20 20 20
24 23 24 24 24 23 23 23 22 22 22 22 22 23 24 24 23 23 22 22 22 22 22 22 22 22 22 21 20 20 20 20 20 20 19 19 19 19 19 19 20 19
24 23 23 24 24 23 23 22 22 22 22 22 23 24 24 24 24 23 23 22 22 22 22 23 23 22 21 21 21 20 20 20 20 20 19 19 19 19 19 19 19 19
24 23 24 24 24 23 23 22 23 23 23 23 23 23 23 24 24 24 23 23 23 23 23 23 23 22 22 21 21 21 20 20 20 20 20 20 19 19 19 19 18 18
24 24 24 24 23 23 23 23 23 23 23 23 23 23 24 24 24 24 24 24 23 23 23 23 23 22 22 22 21 21 20 20 20 20 19 19 19 19 19 18 18 18
24 24 24 23 23 22 23 23 23 23 23 23 22 23 23 23 23 24 24 24 24 23 23 23 23 22 22 22 22 21 20 20 20 20 19 19 19 19 18 17 17 17
24 24 24 23 23 22 23 23 23 23 23 22 22 22 23 23 24 24 24 24 24 24 23 23 23 23 23 22 22 21 20 20 20 20 19 19 19 18 17 16 16 17
24 24 24 23 23 23 23 23 23 23 23 22 22 22 23 24 24 24 24 24 24 24 24 24 23 23 23 23 22 21 20 20 20 20 19 18 18 18 17 16 16 17
24 24 24 24 24 24 24 23 23 23 23 22 21 21 22 23 23 23 23 24 24 24 24 23 23 23 23 23 22 21 20 20 20 19 18 18 18 17 17 17 17 16
24 24 24 24 24 25 24 24 23 23 22 22 22 21 21 22 22 23 23 23 23 23 23 23 23 23 23 22 21 20 20 20 19 19 18 18 18 17 17 17 17 16
Height
1516 1518 1520 1522 1525 1527 1529 1531 1533 1535 1536 1537 1538 1539 1541 1543 1544 1545 1546 1548 1549 1550 1551 1552 1553 1554 1555 1555 1556 1556 1557 1557 1558 1559 1559 1559 1560 1561 1561 1562 1563 1563
1512 1515 1517 1519 1522 1524 1526 1528 1530 1532 1533 1535 1536 1538 1539 1541 1542 1544 1545 1546 1547 1548 1549 1551 1552 1553 1553 1554 1554 1555 1556 1556 1557 1557 1558 1558 1559 1560 1560 1561 1562 1562
1509 1511 1514 1516 1518 1521 1523 1526 1528 1530 1531 1533 1534 1536 1537 1539 1540 1541 1543 1544 1545 1546 1547 1549 1550 1551 1551 1552 1553 1554 1554 1555 1556 1556 1557 1557 1558 1559 1559 1560 1561 1561
1505 1508 1510 1513 1515 1518 1521 1523 1525 1527 1529 1530 1532 1534 1535 1537 1538 1539 1540 1542 1543 1544 1545 1547 1548 1549 1550 1550 1551 1552 1553 1553 1554 1555 1556 1556 1557 1558 1558 1559 1560 1560
1502 1504 1507 1510 1512 1515 1517 1519 1521 1523 1526 1527 1529 1531 1533 1534 1536 1537 1538 1539 1540 1542 1543 1544 1546 1547 1548 1548 1549 1550 1551 1552 1553 1554 1554 1555 1556 1557 1557 1558 1558 1559
1498 1501 1504 1507 1509 1511 1513 1515 1518 1520 1522 1524 1526 1528 1530 1531 1533 1534 1536 1537 1538 1540 1541 1542 1543 1544 1545 1546 1547 1548 1549 1550 1551 1552 1553 1554 1554 1555 1556 1556 1557 1557
1494 1497 1500 1503 1506 1508 1510 1512 1514 1516 1518 1521 1523 1525 1527 1528 1530 1532 1533 1535 1536 1537 1538 1539 1541 1542 1543 1544 1545 1546 1547 1548 1549 1550 1551 1551 1552 1553 1553 1554 1554 1555
1491 1494 1497 1499 1502 1504 1506 1508 1510 1512 1515 1518 1520 1522 1524 1525 1527 1529 1531 1532 1534 1535 1536 1537 1538 1539 1541 1542 1543 1544 1545 1546 1547 1548 1548 1549 1550 1550 1551 1551 1552 1552
1488 1490 1493 1495 1498 1499 1501 1504 1506 1509 1512 1514 1516 1518 1521 1522 1524 1526 1528 1530 1531 1532 1533 1534 1535 1537 1538 1539 1540 1541 1542 1544 1545 1546 1546 1546 1547 1548 1549 1549 1550 1551
1483 1486 1488 1491 1493 1495 1497 1500 1502 1505 1508 1510 1512 1515 1517 1519 1522 1524 1525 1527 1528 1529 1530 1531 1532 1534 1535 1537 1537 1539 1540 1541 1543 1543 1543 1544 1544 1546 1547 1548 1548 1549
1479 1482 1484 1486 1488 1491 1493 1496 1499 1501 1504 1506 1509 1511 1514 1516 1519 1521 1522 1523 1524 1525 1527 1528 1529 1531 1533 1534 1535 1536 1538 1539 1540 1540 1541 1542 1543 1544 1545 1545 1546 1547
1475 1477 1479 1481 1484 1487 1490 1493 1495 1497 1500 1502 1505 1507 1510 1513 1515 1517 1518 1519 1521 1522 1524 1525 1527 1528 1529 1531 1533 1534 1535 1537 1537 1538 1538 1539 1541 1541 1542 1543 1544 1545
1470 1473 1475 1479 1482 1484 1487 1490 1491 1494 1496 1499 1502 1504 1507 1509 1511 1513 1514 1516 1518 1519 1520 1522 1524 1525 1526 1528 1529 1531 1532 1533 1534 1535 1536 1537 1538 1538 1539 1540 1542 1543
1466 1470 1473 1476 1479 1482 1485 1486 1488 1490 1492 1495 1498 1500 1503 1505 1506 1509 1511 1513 1514 1516 1517 1519 1520 1521 1522 1524 1525 1527 1529 1530 1531 1532 1533 1534 1535 1536 1537 1538 1539 1540
1462 1467 1470 1473 1477 1479 1481 1483 1485 1487 1489 1492 1494 1496 1499 1501 1503 1505 1507 1509 1510 1512 1514 1515 1516 1517 1517 1519 1521 1523 1525 1526 1528 1529 1530 1532 1532 1533 1534 1535 1536 1538
1458 1462 1466 1469 1472 1474 1477 1479 1481 1484 1486 1488 1490 1492 1495 1497 1499 1501 1503 1504 1506 1508 1510 1511 1511 1512 1513 1515 1518 1520 1522 1524 1525 1526 1528 1529 1529 1530 1530 1532 1533 1535
1453 1457 1461 1464 1467 1470 1473 1475 1478 1480 1482 1484 1486 1488 1490 1493 1495 1496 1498 1500 1502 1503 1505 1506 1506 1507 1509 1512 1514 1517 1519 1521 1522 1523 1524 1525 1526 1526 1527 1528 1529 1531
1448 1452 1455 1459 1461 1464 1468 1471 1474 1477 1478 1480 1481 1483 1485 1488 1489 1491 1493 1495 1497 1499 1500 1500 1501 1503 1505 1508 1510 1513 1515 1517 1518 1519 1519 1520 1521 1521 1522 1524 1525 1527
1444 1447 1450 1453 1456 1459 1463 1467 1470 1471 1473 1474 1476 1478 1481 1482 1484 1486 1488 1490 1492 1493 1495 1496 1497 1500 1502 1504 1506 1508 1511 1514 1515 1515 1515 1515 1516 1516 1518 1519 1521 1523
1440 1442 1445 1448 1451 1455 1459 1461 1463 1465 1467 1469 1471 1473 1475 1476 1478 1481 1483 1485 1487 1488 1490 1492 1493 1496 1498 1500 1502 1504 1507 1510 1511 1511 1511 1511 1510 1511 1513 1514 1516 1519
1435 1437 1440 1443 1446 1450 1453 1455 1457 1459 1461 1463 1466 1467 1469 1471 1473 1476 1478 1480 1482 1484 1486 1487 1489 1491 1493 1495 1497 1499 1503 1506 1507 1507 1507 1506 1506 1507 1507 1508 1511 1514
1430 1433 1435 1439 1442 1445 1447 1449 1451 1452 1455 1458 1460 1462 1465 1467 1468 1470 1472 1474 1477 1480 1481 1482 1484 1487 1489 1491 1493 1495 1499 1502 1503 1503 1502 1502 1502 1502 1501 1503 1507 1510
1426 1429 1432 1435 1437 1439 1440 1442 1444 1447 1450 1452 1455 1457 1459 1461 1463 1464 1467 1470 1472 1475 1476 1477 1480 1482 1485 1486 1488 1491 1495 1498 1499 1499 1497 1497 1499 1499 1499 1501 1504 1507
1423 1425 1428 1431 1433 1433 1434 1436 1439 1442 1445 1447 1450 1452 1454 1456 1458 1460 1463 1465 1467 1469 1471 1473 1476 1478 1480 1482 1485 1488 1491 1494 1496 1495 1493 1494 1496 1497 1497 1499 1501 1502
1419 1422 1425 1427 1428 1428 1430 1432 1435 1438 1441 1444 1446 1448 1450 1452 1455 1457 1459 1460 1462 1465 1467 1469 1472 1474 1476 1478 1481 1484 1488 1490 1492 1492 1489 1490 1493 1494 1494 1497 1498 1499
1416 1418 1420 1422 1423 1424 1426 1429 1432 1435 1438 1440 1441 1443 1446 1449 1451 1452 1454 1456 1458 1460 1463 1465 1468 1470 1472 1474 1477 1481 1484 1486 1488 1487 1485 1487 1490 1490 1491 1493 1495 1497
Wind_Speed
39 38 38 39 38 37 36 37 36 35 34 33 31 29 28 27 27 27 27 26 24 24 23 22 21 20 19 18 16 15 14 14 14 13 15 15 16 16 17 17 17 18
42 39 38 39 39 38 37 37 37 35 35 33 31 29 28 28 27 27 27 25 24 23 23 23 21 20 19 18 17 16 15 15 15 15 15 16 16 16 17 17 18 19
44 42 39 38 39 39 39 38 37 36 35 34 32 30 29 29 29 28 27 26 25 23 23 23 22 21 19 18 18 17 16 16 16 16 16 17 17 17 17 17 18 19
46 44 41 38 37 39 40 40 40 38 37 36 34 31 30 29 29 29 28 27 26 25 24 24 23 21 19 19 20 19 18 18 17 18 18 18 18 19 18 18 19 19
46 44 42 39 37 38 40 41 42 40 39 38 36 33 32 31 30 30 29 29 28 26 25 25 24 22 21 21 22 21 20 19 19 20 20 19 19 20 20 20 20 20
47 45 43 41 38 38 40 42 42 42 41 39 38 36 34 33 32 31 31 30 29 28 27 26 25 24 23 23 23 23 22 21 21 22 22 21 20 21 22 22 21 21
49 47 44 42 40 39 39 41 42 42 42 41 40 39 37 35 34 33 32 31 31 30 29 28 27 26 25 25 25 25 24 23 24 24 24 23 22 23 24 24 23 22
50 48 45 43 41 40 39 40 42 42 42 42 41 40 39 38 36 34 33 33 32 32 31 29 28 27 27 27 26 26 25 25 25 26 26 25 25 25 25 24 24 23
50 48 46 44 42 41 39 39 41 42 42 42 41 40 40 39 38 36 35 34 33 33 32 31 30 29 28 28 28 27 27 27 27 27 27 27 27 26 26 25 25 24
51 49 47 45 43 41 40 39 40 41 41 41 41 40 40 40 39 38 37 36 35 34 34 33 33 32 30 30 29 28 28 28 28 28 28 29 28 28 27 26 26 25
52 50 48 46 43 41 40 39 39 40 41 41 40 40 40 40 40 39 39 38 37 36 35 35 34 34 32 31 29 29 29 29 29 29 29 29 29 29 28 27 27 26
52 51 50 47 44 42 40 38 38 39 40 41 41 40 40 40 40 40 40 39 39 38 37 36 36 35 34 32 31 30 30 30 30 30 30 31 30 30 30 29 28 27
53 52 50 48 45 42 40 39 39 39 39 40 40 40 40 40 40 41 41 41 40 40 39 38 37 36 36 35 34 32 32 31 31 31 31 31 31 31 31 31 29 27
53 51 50 48 45 43 41 40 39 39 39 39 40 40 40 40 40 41 41 41 41 41 41 40 39 38 38 37 36 35 34 34 32 32 31 31 31 32 32 32 30 28
52 50 49 47 46 44 43 42 41 40 39 39 40 40 40 39 40 40 41 42 42 42 42 42 41 41 40 39 38 37 37 36 34 33 32 31 31 32 33 32 31 30
52 51 49 48 47 46 45 43 42 41 40 40 40 40 40 40 40 41 42 42 42 42 42 43 43 42 41 41 40 39 38 37 35 35 34 32 32 33 33 33 32 30
52 51 49 48 48 47 46 45 43 42 42 41 41 41 41 41 41 42 43 42 43 43 43 43 43 42 42 41 41 40 38 37 36 35 35 34 34 33 33 33 33 31
52 51 50 49 48 48 47 46 44 43 43 42 42 42 42 42 43 43 43 43 43 44 44 44 43 42 42 42 41 40 39 37 36 36 36 35 35 35 34 33 33 33
52 51 50 49 49 49 48 47 45 44 44 44 43 43 43 43 44 44 44 43 44 44 44 44 43 43 43 42 41 41 39 36 35 35 35 35 35 36 35 34 33 35
52 52 51 50 49 49 48 48 47 46 45 45 44 44 45 45 45 45 44 44 44 44 44 44 44 43 43 42 41 40 38 35 34 34 35 35 36 37 36 35 34 34
52 52 52 50 50 50 50 49 48 48 47 47 46 46 46 46 46 46 45 44 44 44 44 44 44 44 43 42 41 40 38 35 33 34 35 36 38 39 38 38 35 32
53 53 52 51 50 51 51 50 50 49 49 48 48 48 47 47 47 46 45 45 44 44 45 45 44 43 42 41 41 40 38 35 34 35 36 38 38 39 41 39 36 33
54 53 52 51 51 52 52 52 51 50 50 50 50 49 49 48 48 47 46 45 44 44 44 44 44 42 41 40 41 40 38 36 35 35 38 39 37 39 43 41 36 33
54 54 53 52 52 53 53 53 51 51 51 51 51 51 49 48 48 47 46 45 44 43 43 43 43 41 40 40 40 40 39 37 34 35 39 40 37 38 41 39 36 34
53 53 53 53 53 53 53 52 51 51 51 51 51 51 50 48 47 48 47 46 45 44 44 43 42 40 40 40 40 40 38 36 34 36 40 40 36 37 38 35 35 34
52 53 54 54 54 54 53 52 51 50 50 51 51 51 50 49 49 48 48 47 47 45 45 43 42 41 40 40 40 39 36 35 35 36 40 38 34 35 36 34 33 32
Wind_Direction
231 233 234 234 233 231 230 229 228 228 228 226 225 226 228 229 229 231 234 237 236 235 233 233 233 232 230 230 231 232 236 239 238 239 239 239 241 244 244 243 240 241
230 232 235 236 234 231 230 230 230 230 230 229 228 228 230 231 231 234 237 238 235 232 231 231 232 232 231 233 234 233 234 236 235 235 237 237 239 239 240 241 241 242
230 231 233 235 235 232 230 230 230 231 232 232 231 230 231 233 235 238 240 239 237 235 233 231 231 231 232 236 238 236 234 234 234 235 237 237 238 237 237 239 239 241
231 232 233 235 236 234 232 230 230 231 232 233 232 232 233 234 237 239 241 240 239 238 237 235 233 231 232 238 239 237 234 234 234 235 237 237 237 237 236 236 237 239
232 233 233 234 236 235 234 232 231 231 232 233 233 233 234 235 237 239 240 240 239 239 239 239 237 234 233 237 240 239 236 234 233 233 234 235 236 237 235 235 236 238
231 232 233 234 235 235 235 234 233 233 233 233 234 234 234 235 236 238 239 240 239 239 240 240 240 237 236 237 240 240 238 237 236 234 234 233 233 235 234 234 234 237
231 232 232 233 234 235 236 235 234 234 234 234 234 235 235 235 236 237 239 240 240 240 241 241 241 240 239 239 240 240 240 239 239 237 236 234 233 233 233 233 232 234
231 232 232 233 234 235 236 236 234 234 234 235 235 235 236 237 237 237 238 239 240 240 242 242 243 243 242 242 241 241 241 241 240 239 237 236 234 232 232 232 233 234
231 232 233 233 233 234 235 235 234 233 234 235 235 236 236 237 238 238 238 239 240 241 242 243 244 243 243 243 243 243 243 243 242 240 239 238 236 233 232 233 235 236
230 232 232 233 233 234 234 234 233 233 233 234 235 236 236 237 237 238 239 240 241 242 242 243 243 243 242 244 245 245 244 245 245 244 243 241 240 237 235 235 236 238
230 231 232 233 233 233 233 233 232 232 232 233 234 236 237 237 237 238 238 240 241 242 243 243 244 244 243 243 245 246 246 246 247 248 247 245 244 242 238 236 237 238
229 230 232 233 233 233 233 232 232 232 232 232 233 235 237 237 238 238 239 240 242 243 244 245 245 245 245 245 245 246 247 246 247 249 249 247 245 244 241 238 237 239
230 231 232 233 234 234 233 232 232 232 232 232 233 234 236 238 238 238 239 241 243 244 245 246 247 247 247 247 246 246 246 247 247 248 250 249 246 245 244 241 238 240
230 231 232 233 235 235 235 234 232 232 233 233 233 234 236 237 239 239 240 242 244 245 246 247 248 248 248 248 247 246 246 247 247 248 249 250 249 247 247 243 239 241
229 230 232 233 235 235 235 234 233 233 233 233 234 234 235 237 238 240 241 243 245 246 247 247 248 249 249 249 248 247 247 248 249 250 250 251 252 251 250 247 241 241
227 229 231 232 234 235 235 234 233 233 232 233 234 234 235 236 238 239 240 243 245 246 247 248 248 250 250 250 249 249 250 251 252 253 253 253 253 252 252 250 244 242
227 228 229 232 233 234 234 234 234 233 232 233 234 234 235 235 237 239 240 242 244 246 247 248 249 250 251 251 251 251 251 252 254 256 256 255 254 254 253 252 246 241
228 228 228 231 233 233 233 233 233 233 233 233 233 234 234 235 236 238 240 242 244 246 247 249 250 252 252 252 252 252 252 254 255 257 258 258 257 256 254 254 247 241
227 227 228 230 232 232 232 232 232 233 234 233 233 233 233 234 236 238 240 242 244 245 247 250 252 252 253 254 254 254 253 254 255 257 258 259 259 258 256 255 251 244
227 228 230 231 232 231 230 231 232 233 234 234 233 232 233 234 235 237 239 241 243 245 248 250 252 253 254 255 255 255 255 254 255 257 259 259 260 260 259 257 254 249
228 229 230 231 230 229 229 231 233 233 234 233 232 232 233 234 235 236 238 240 242 245 247 250 252 253 254 255 256 256 255 255 255 256 257 258 259 260 260 258 257 255
229 230 230 229 228 228 229 231 232 233 233 232 232 233 233 234 235 236 238 239 241 244 246 249 251 252 254 255 256 256 255 255 255 255 255 256 258 260 260 259 258 258
230 229 229 228 227 228 230 232 232 233 233 232 231 231 232 233 234 235 237 239 241 243 245 248 250 252 254 256 257 256 255 254 255 255 255 254 256 259 260 260 261 259
230 230 229 229 229 231 232 233 232 233 233 232 231 231 232 234 234 235 237 239 240 242 244 247 250 252 255 257 257 257 256 256 257 258 255 252 252 255 257 260 262 260
230 230 230 230 232 234 234 234 233 233 233 232 232 232 233 234 234 235 237 238 239 242 244 246 249 252 254 256 257 257 257 257 259 259 255 253 254 255 256 258 260 258
231 231 231 233 235 236 235 235 234 233 233 233 233 233 233 234 234 235 236 238 239 241 243 245 248 250 253 256 256 257 258 258 259 259 255 254 258 261 260 262 262 260